Weather History for Sarasota, FL

Change the Weather History Date:

Sunday, January 5, 2014

  Actual Average Record
Temperature  
Mean Temperature 68 °F 61 °F  
Max Temperature 79 °F 71 °F 84 °F (1966)
Min Temperature 57 °F 52 °F 28 °F (1918)
Degree Days  
Heating Degree Days 0 6  
Month to date heating degree days 20 28  
Since 1 July heating degree days 62 183  
Cooling Degree Days 3 2  
Month to date cooling degree days 9 10  
Year to date cooling degree days 9 10  
Growing Degree Days 18 (Base 50)    
Moisture  
Dew Point 61 °F    
Average Humidity 85    
Maximum Humidity 100    
Minimum Humidity 58    
Precipitation  
Precipitation 0.00 in 0.12 in 1.60 in (1940)
Month to date precipitation 0.37 0.61  
Year to date precipitation 0.37 0.61  
Sea Level Pressure  
Sea Level Pressure 30.00 in    
Wind  
Wind Speed 4 mph (WSW)    
Max Wind Speed 13 mph    
Max Gust Speed 15 mph    
Visibility 7 miles    
Events Fog    
T = Trace of Precipitation, MM = Missing Value Source: NWS Daily Summary

Daily Weather History Graph

Daily Weather History Graph

Search for Another Location

Airport:

Trip Planner

Search our weather history database for the weather conditions in past years. The results will help you decide how hot, cold, wet, or windy it might be!

Date:

Astronomy

Jan. 05, 2014 Rise Set
Actual Time 7:21 AM EST 5:50 PM EST
Civil Twilight 6:55 AM EST 6:15 PM EST
Nautical Twilight 6:26 AM EST 6:44 PM EST
Astronomical Twilight 5:58 AM EST 7:13 PM EST
Moon 10:29 AM EST (1/5) 10:46 PM EST (1/5)
Length of Visible Light 11h 19m
Length of Day
10h 29m
Waxing Crescent, 24% of the Moon is Illuminated
Jan 5
Waxing Crescent
Jan 7
First Quarter
Jan 15
Full
Jan 24
Last Quarter
Jan 30
New

Hourly Weather History & Observations

Time (EST) Temp. Dew Point Humidity Pressure Visibility Wind Dir Wind Speed Gust Speed Precip Events Conditions
12:53 AM 64.0 °F 60.1 °F 87% 30.03 in 10.0 mi East 9.2 mph - N/A   Overcast
1:53 AM 64.9 °F 60.1 °F 84% 30.00 in 10.0 mi NE 5.8 mph - N/A   Scattered Clouds
2:53 AM 64.0 °F 60.1 °F 87% 30.01 in 10.0 mi North 3.5 mph - N/A   Clear
3:53 AM 62.1 °F 60.1 °F 93% 30.00 in 10.0 mi NNE 4.6 mph - N/A   Clear
4:53 AM 61.0 °F 59.0 °F 93% 30.00 in 9.0 mi ENE 5.8 mph - N/A   Clear
5:53 AM 60.1 °F 57.9 °F 93% 29.99 in 8.0 mi NE 4.6 mph - N/A   Clear
6:53 AM 59.0 °F 57.0 °F 93% 30.01 in 7.0 mi Calm Calm - N/A   Clear
7:29 AM 57.2 °F 55.4 °F 94% 30.02 in 0.8 mi Calm Calm - N/A   Clear
7:43 AM 57.2 °F 57.2 °F 100% 30.03 in 2.0 mi Calm Calm - N/A   Clear
7:53 AM 57.0 °F 55.9 °F 96% 30.03 in 1.8 mi Calm Calm - N/A   Clear
8:03 AM 59.0 °F 57.2 °F 94% 30.04 in 3.0 mi Calm Calm - N/A   Clear
8:53 AM 64.0 °F 60.1 °F 87% 30.04 in 9.0 mi Calm Calm - N/A   Clear
9:53 AM 70.0 °F 63.0 °F 78% 30.04 in 10.0 mi SSE 4.6 mph - N/A   Clear
10:53 AM 75.9 °F 64.0 °F 67% 30.04 in 10.0 mi SW 4.6 mph - N/A   Clear
11:53 AM 75.9 °F 64.0 °F 67% 30.01 in 10.0 mi WSW 6.9 mph - N/A   Clear
12:53 PM 79.0 °F 64.0 °F 60% 29.98 in 10.0 mi SW 6.9 mph - N/A   Clear
1:53 PM 78.1 °F 63.0 °F 60% 29.96 in 10.0 mi SW 8.1 mph - N/A   Clear
2:53 PM 75.9 °F 64.0 °F 67% 29.96 in 10.0 mi WSW 6.9 mph - N/A   Clear
3:53 PM 75.9 °F 64.0 °F 67% 29.97 in 10.0 mi SW 5.8 mph - N/A   Clear
4:53 PM 73.0 °F 64.0 °F 73% 29.98 in 10.0 mi WSW 4.6 mph - N/A   Clear
5:53 PM 69.1 °F 63.0 °F 81% 29.98 in 10.0 mi WNW 4.6 mph - N/A   Clear
6:53 PM 66.9 °F 63.0 °F 87% 29.99 in 10.0 mi Calm Calm - N/A   Clear
7:53 PM 66.0 °F 63.0 °F 90% 29.99 in 10.0 mi Calm Calm - N/A   Clear
8:53 PM 64.9 °F 63.0 °F 93% 29.99 in 7.0 mi Calm Calm - N/A   Clear
9:53 PM 64.0 °F 62.1 °F 93% 30.00 in 10.0 mi Calm Calm - N/A   Clear
10:53 PM 63.0 °F 62.1 °F 97% 29.99 in 10.0 mi Calm Calm - N/A   Clear
11:21 PM 62.6 °F 62.6 °F 100% 29.99 in 2.5 mi Calm Calm - N/A   Clear
11:36 PM 62.6 °F 60.8 °F 94% 29.98 in 1.8 mi Calm Calm - N/A   Clear
11:49 PM 64.4 °F 62.6 °F 94% 29.98 in 0.8 mi Calm Calm - N/A   Mist
11:53 PM 64.0 °F 63.0 °F 96% 29.97 in 0.5 mi Calm Calm - N/A Fog Fog